Wind_Speed
9 9 9 10 10 11 12 13 13 13 13 13 13 14 15 16 17 17 18 18 17 16 15 14 12 13 6 3 3 4 8 11 9 10 11 5 5 3 2 5 6 3 3 7 10 10 6
6 5 7 8 9 10 10 11 14 13 13 13 14 15 16 17 18 19 19 19 19 17 15 13 11 9 3 1 4 3 8 9 7 8 7 6 3 3 4 4 2 4 7 11 6 11 6
6 7 6 8 10 10 10 10 12 13 14 14 15 16 17 18 20 20 21 20 18 15 14 12 9 5 3 5 3 5 6 8 4 6 3 5 4 2 3 5 4 6 7 8 6 5 6
6 6 6 8 9 10 10 11 12 13 14 15 17 18 20 21 22 23 21 18 15 12 11 7 3 2 5 2 4 5 7 5 7 5 7 10 5 3 3 4 5 4 4 5 6 9 2
5 5 4 6 6 7 8 10 12 13 13 14 16 18 21 23 25 22 18 18 11 5 3 1 1 1 6 2 4 4 6 4 10 2 9 10 3 2 2 3 4 4 3 9 10 7 5
4 5 6 6 8 7 8 9 10 11 13 15 16 19 20 22 23 18 18 7 4 4 5 3 2 2 4 2 3 4 3 4 3 7 5 1 2 1 3 3 3 5 9 6 9 5 10
6 6 6 7 7 8 9 10 10 12 13 15 17 21 20 21 17 15 19 2 6 3 1 4 2 4 3 3 4 3 2 2 0 2 2 3 2 5 9 6 8 7 6 12 9 7 11
8 8 8 7 8 9 9 11 12 12 14 16 19 20 20 19 11 12 12 6 3 3 7 8 8 7 11 2 3 2 2 2 2 2 5 4 5 7 5 6 8 8 7 10 8 4 11
12 10 10 10 9 9 10 11 12 13 15 18 19 20 20 20 5 8 10 8 5 4 2 6 3 2 1 2 3 3 2 0 2 1 2 4 6 7 5 4 6 6 6 7 10 5 6
12 14 13 12 11 11 10 10 12 13 15 19 20 20 19 17 1 7 3 10 5 2 4 3 2 2 1 1 2 1 1 1 2 2 4 6 5 3 3 4 4 7 4 6 6 7 4
11 9 13 15 14 13 12 12 12 14 14 16 19 19 16 11 8 1 5 8 6 1 4 2 2 1 2 2 2 2 1 2 3 3 4 6 3 3 3 5 1 6 3 4 7 9 5
9 8 8 9 10 13 14 14 13 12 14 16 18 19 17 8 10 4 9 7 0 5 5 2 2 1 2 3 2 1 2 2 2 2 3 7 2 3 4 2 2 4 4 5 3 3 3
9 11 11 13 13 12 11 15 15 10 15 16 18 20 16 13 2 8 8 1 5 5 4 3 3 2 3 3 3 5 2 2 2 4 4 6 3 3 3 2 4 2 3 4 4 3 4
6 6 7 10 12 13 12 15 11 12 12 16 18 21 10 10 5 6 3 4 3 4 5 3 2 3 4 2 3 3 2 4 4 1 2 1 8 5 4 6 5 1 1 1 4 2 5
5 6 8 9 10 12 14 13 15 15 11 14 17 14 7 4 1 1 3 2 6 6 3 4 7 2 3 2 2 1 5 3 5 8 4 1 5 3 5 4 7 2 3 4 4 3 3
5 5 6 8 9 10 13 13 11 13 11 12 11 8 5 2 2 1 3 5 4 3 0 1 1 1 3 3 3 2 2 3 3 7 3 3 6 4 3 3 5 5 4 1 2 4 4
6 6 5 6 7 9 12 15 11 11 12 9 5 3 1 3 3 3 3 5 5 3 0 2 3 4 4 3 2 3 5 3 3 2 5 3 4 6 1 5 5 3 3 4 3 2 3
6 4 6 6 8 9 11 14 15 9 6 3 0 1 1 5 1 1 2 4 4 3 0 3 2 4 4 3 4 3 4 3 4 5 3 4 3 5 11 5 4 5 6 6 3 5 3
6 7 7 7 7 8 10 11 13 11 8 1 1 2 2 2 3 3 4 4 2 2 4 2 3 6 1 2 3 5 4 2 5 6 4 3 2 5 10 4 1 3 4 4 3 1 5
5 7 8 9 9 12 11 11 10 11 8 4 1 2 1 1 1 2 1 4 4 4 4 3 4 3 2 3 5 6 3 2 2 3 3 1 3 7 7 13 2 11 10 7 6 3 6
6 6 6 9 11 11 11 11 9 8 9 4 2 4 3 3 4 5 5 2 2 3 2 2 2 4 4 3 4 5 4 4 2 4 3 3 5 4 12 19 17 17 18 14 10 14 8
7 7 7 8 10 12 12 12 10 7 8 4 2 2 2 2 2 5 7 5 5 4 4 4 5 9 3 5 7 13 13 4 7 1 4 2 4 4 8 7 3 9 11 9 7 5 10
10 8 7 8 11 13 13 14 12 8 5 3 4 6 2 4 2 1 5 6 5 3 6 8 3 5 6 10 9 11 8 7 10 7 7 4 3 4 6 6 10 4 4 3 3 5 5
11 9 9 10 12 13 14 13 14 10 8 5 2 3 2 4 5 4 6 9 13 13 9 14 8 5 6 5 6 6 8 13 10 10 8 5 4 3 5 7 3 4 2 4 5 6 6
10 10 11 13 14 14 15 14 14 11 9 11 6 1 2 4 7 8 10 8 7 10 13 14 15 9 4 3 4 7 5 4 2 2 6 6 4 2 3 3 7 3 3 4 4 4 2
12 14 15 15 16 18 17 15 8 7 7 6 8 8 5 2 7 12 12 10 9 9 12 12 14 6 3 3 3 4 4 4 4 2 6 4 3 4 0 3 4 2 2 2 2 4 3
15 15 14 15 17 18 15 11 8 10 10 10 8 10 7 4 8 10 5 4 4 5 5 5 6 2 2 3 4 5 7 5 5 6 5 4 2 8 5 4 8 5 3 3 0 4 3
8 4 6 6 6 4 5 8 11 13 13 12 13 13 13 5 10 13 13 11 8 6 6 3 4 1 1 4 3 4 5 5 4 4 7 9 8 4 4 4 8 7 4 4 2 1 2
6 6 6 7 8 8 11 12 14 16 15 15 19 22 21 16 9 14 19 33 32 26 1 3 5 1 3 2 2 2 4 2 4 4 1 3 7 5 9 6 3 4 4 2 2 3 3
Wind_Direction
46 48 33 24 22 22 15 7 8 10 5 0 358 354 349 345 339 333 330 326 323 320 319 321 329 339 348 31 247 315 337 2 16 15 12 1 22 14 355 311 317 229 290 314 300 291 273
53 49 24 22 11 18 14 8 359 359 358 357 354 351 346 340 337 331 327 322 320 316 314 313 323 336 323 224 167 322 330 358 360 358 347 358 328 289 261 265 276 295 298 294 282 289 272
28 24 19 10 11 12 8 6 1 358 354 350 350 345 341 340 337 332 326 319 314 308 307 306 313 325 289 214 208 304 323 332 330 320 294 302 303 350 325 297 321 271 287 297 287 330 287
358 19 22 6 11 7 3 1 358 357 357 350 345 341 340 338 337 333 328 323 314 304 300 304 299 275 251 251 271 258 318 326 315 294 294 278 287 241 208 288 317 313 351 350 322 344 292
1 344 10 7 5 5 355 352 349 349 349 343 339 338 337 337 339 340 337 330 314 308 328 143 162 190 277 276 258 250 305 302 323 331 314 267 260 245 311 294 354 359 292 311 316 323 297
344 352 339 350 353 348 351 345 345 342 338 340 340 335 336 340 344 344 342 345 27 89 90 113 274 349 275 263 241 260 268 276 307 331 6 42 42 349 347 70 262 270 290 265 274 279 293
309 322 332 333 338 344 334 342 334 333 336 336 335 332 337 345 349 354 355 31 10 5 358 230 273 265 264 298 283 252 252 306 3 52 8 301 16 260 256 245 266 282 261 268 285 274 291
293 300 310 315 326 331 338 343 337 338 337 335 335 338 344 348 351 16 21 62 70 274 315 281 253 253 276 248 300 260 248 9 17 307 335 355 246 266 265 270 287 278 283 286 288 279 311
289 290 293 299 312 321 329 340 352 351 345 343 340 345 347 348 9 22 59 46 354 343 273 295 224 229 244 176 267 260 183 148 247 297 282 215 250 311 281 294 309 280 246 269 272 323 270
281 276 283 288 293 304 315 326 334 349 355 352 348 343 352 353 69 4 77 352 357 347 46 252 243 243 174 177 271 111 192 141 311 292 308 247 274 279 308 286 250 288 294 286 305 336 293
298 297 294 284 282 284 295 310 321 330 342 352 350 345 348 9 327 16 324 338 327 182 22 242 207 157 154 216 314 210 317 60 222 248 76 260 276 297 275 233 54 243 325 279 283 275 297
298 305 288 330 316 305 286 288 298 317 331 340 345 345 336 339 315 286 330 327 136 43 264 333 111 264 268 176 254 42 327 354 243 274 221 247 266 255 221 56 31 326 323 297 249 255 259
293 306 305 301 308 308 305 280 272 296 318 329 333 335 322 306 273 313 322 64 32 127 308 329 293 186 241 235 224 185 209 270 221 21 344 315 252 256 162 313 356 14 307 334 347 353 242
351 341 326 332 318 310 301 309 325 284 292 311 323 328 321 296 274 324 330 45 114 251 260 334 331 285 241 238 226 186 281 281 229 159 48 59 326 198 172 200 186 216 162 218 278 292 281
356 357 354 339 337 323 321 302 297 307 290 302 318 319 312 315 287 262 74 63 210 201 270 356 325 348 302 295 223 196 214 239 219 178 171 337 268 268 202 154 149 204 229 194 258 248 271
329 334 344 356 1 339 337 319 296 308 303 288 317 316 284 218 212 114 85 241 252 228 165 75 246 197 288 293 309 130 252 212 249 195 157 270 297 242 318 119 225 174 307 308 254 302 282
273 297 323 336 338 339 343 351 327 307 311 278 309 331 208 182 179 55 181 237 278 285 129 172 240 283 270 287 257 274 267 279 205 185 160 173 169 284 308 203 196 140 243 215 251 221 301
9 2 330 322 324 329 338 345 353 331 327 280 148 273 181 169 90 213 191 207 283 271 350 269 235 231 232 291 272 268 253 249 156 153 212 226 211 273 244 235 220 194 216 186 149 276 241
339 332 332 336 338 335 338 335 354 350 337 304 211 257 186 233 224 213 283 291 266 278 224 229 254 215 178 259 312 235 269 256 172 168 203 191 279 314 329 6 337 222 214 214 234 231 222
324 320 319 323 321 312 315 327 334 347 345 241 294 291 250 158 285 148 247 255 258 297 254 197 252 214 244 274 231 280 269 296 221 233 147 130 227 203 234 264 305 285 263 248 208 230 252
292 308 320 324 320 323 326 320 315 323 335 281 224 244 210 224 231 196 184 256 282 308 249 209 284 226 213 287 298 241 263 291 242 211 175 174 251 239 254 264 272 268 273 273 215 238 228
260 284 292 310 312 310 310 317 318 295 323 264 283 240 351 265 257 162 192 214 210 219 215 264 219 262 205 216 226 285 290 283 249 112 185 194 270 323 292 271 229 276 269 250 235 232 245
289 258 279 293 297 299 302 305 313 292 301 291 321 359 338 240 280 248 202 206 231 7 264 239 307 313 285 248 240 239 233 230 237 201 200 195 203 352 270 322 309 298 251 224 265 210 211
283 264 278 289 290 288 300 305 305 275 250 268 320 320 310 258 252 237 277 288 291 285 255 288 296 234 248 285 299 282 254 251 242 232 181 179 162 169 282 328 321 244 219 202 224 269 256
284 283 287 288 288 290 294 295 285 268 237 232 235 211 261 265 262 279 271 282 313 298 286 287 279 250 274 284 302 318 313 313 250 205 189 174 145 261 262 274 283 279 213 193 188 274 221
292 289 287 287 286 286 286 282 276 237 237 235 250 245 229 246 232 238 257 271 283 289 295 281 266 250 187 199 175 227 248 302 286 62 43 116 120 173 340 266 260 253 215 155 141 283 189
295 283 281 285 285 283 284 257 247 267 267 263 253 243 256 261 235 246 244 246 206 239 262 293 322 300 144 184 211 225 248 257 264 192 174 143 194 215 214 271 283 240 162 136 190 248 162
357 320 291 316 335 319 283 277 274 276 274 259 264 262 235 267 267 262 254 237 260 264 243 264 333 294 55 170 194 214 212 236 235 202 179 171 166 197 174 209 273 158 108 195 207 237 196
337 336 327 316 310 305 293 290 286 284 282 280 272 278 271 244 258 274 268 247 240 241 231 240 245 223 254 205 233 290 249 243 216 254 123 227 193 181 191 214 240 212 212 155 192 181 187
Height
879 878 878 876 875 873 872 870 868 866 864 861 858 856 853 851 848 846 842 840 837 835 833 831 829 828 825 825 824 821 820 818 816 814 814 813 813 814 816 813 808 807 803 799 795 792 790
879 879 878 876 874 873 872 870 869 867 864 861 858 855 853 850 846 843 840 837 835 833 832 830 830 829 827 825 820 820 819 817 816 815 815 814 814 813 814 811 808 803 801 797 793 790 788
879 878 877 876 875 874 872 870 868 866 864 862 858 856 852 848 845 841 838 834 832 831 830 829 829 830 829 822 819 819 818 816 816 816 815 815 814 815 813 812 805 802 804 797 792 790 788
880 878 877 875 875 873 872 870 868 866 863 861 858 855 851 847 843 838 834 831 829 827 827 828 828 830 826 819 818 817 816 815 815 814 815 814 814 814 813 808 806 807 807 812 796 794 784
880 879 876 874 871 871 870 869 867 865 862 860 857 853 849 845 840 836 832 828 826 825 825 827 829 829 825 819 818 816 816 815 813 812 812 812 813 813 811 812 819 819 821 808 802 794 791
878 877 876 874 872 871 869 867 865 863 861 858 855 851 847 843 838 834 830 826 825 825 826 827 829 833 822 819 817 815 815 814 814 812 811 811 815 818 820 821 841 820 810 808 805 795 791
878 877 876 874 872 869 869 867 864 862 859 856 853 849 845 842 837 835 829 827 830 829 827 825 825 823 820 818 817 815 814 814 814 814 818 815 825 832 819 816 809 813 814 804 798 794 791
876 876 875 873 872 870 868 865 864 861 858 855 851 847 844 841 838 836 834 835 841 842 837 822 821 822 819 818 818 815 815 816 816 820 818 824 831 812 810 810 808 809 812 809 802 791 791
875 874 873 873 872 870 868 866 862 859 857 854 851 847 843 839 838 838 839 841 841 840 842 824 817 818 818 819 818 816 816 815 816 819 817 824 810 806 806 806 808 808 810 806 802 794 788
873 872 871 871 870 869 867 864 862 859 856 853 850 847 843 839 840 839 840 842 840 840 853 822 819 817 818 817 818 814 815 817 816 817 817 821 808 803 805 807 806 813 799 798 798 803 798
870 870 869 869 867 866 865 864 862 860 856 853 850 848 844 841 842 840 841 839 839 840 870 818 818 816 815 820 817 815 816 817 818 816 822 815 808 807 808 804 800 804 801 799 798 796 798
870 868 869 867 866 865 863 861 859 858 855 853 850 847 845 843 841 840 839 837 839 857 861 817 817 817 819 818 817 817 818 817 816 817 818 816 805 805 803 801 807 807 804 801 798 795 799
868 866 866 865 864 863 860 858 856 855 855 851 849 847 844 843 840 840 838 838 857 868 822 817 814 817 817 814 814 818 820 822 822 830 827 812 804 800 797 803 813 806 801 838 820 827 790
867 865 864 862 862 862 859 857 854 853 852 851 847 845 842 841 839 838 838 843 857 832 825 814 812 813 817 807 807 813 816 819 816 813 850 838 825 799 796 799 816 805 803 810 821 823 800
865 864 862 862 861 861 858 856 854 850 848 847 845 843 840 841 838 838 842 859 839 834 820 821 817 816 814 808 809 810 816 813 806 811 818 835 814 790 793 794 798 804 805 791 796 792 784
864 863 861 859 858 859 856 853 852 849 847 845 843 842 840 839 839 839 844 839 830 818 815 817 823 816 816 813 814 815 809 802 800 803 801 806 819 792 785 789 792 794 792 792 796 784 781
861 862 860 858 856 856 855 853 850 849 846 845 842 843 839 838 841 842 850 843 826 817 814 819 822 821 817 817 811 811 806 799 798 801 804 804 814 800 788 791 787 794 793 790 790 791 775
861 860 860 858 857 856 854 853 851 847 843 844 842 846 838 839 845 846 842 832 821 817 816 817 819 821 819 817 815 811 809 799 796 800 804 804 811 814 795 779 776 781 782 785 802 796 798
861 861 858 859 857 855 854 852 850 850 847 843 840 839 838 840 841 842 834 827 822 820 819 818 819 819 816 815 817 812 804 795 797 800 802 802 813 823 793 785 778 777 777 777 780 777 781
856 857 858 858 857 856 852 852 850 849 847 847 844 845 839 838 837 834 835 830 825 817 818 817 817 815 815 816 816 811 804 796 797 798 797 799 809 809 807 783 784 782 778 779 780 791 773
854 853 853 856 858 855 853 850 849 848 848 848 841 839 834 836 834 834 834 830 826 824 817 816 816 816 817 818 815 814 806 801 797 796 799 803 811 809 798 787 782 780 775 771 782 770 773
850 851 850 851 854 854 852 849 849 848 847 848 841 837 833 835 828 834 835 830 824 820 820 817 819 813 816 822 814 809 807 807 803 802 803 806 805 805 797 777 778 775 768 769 770 767 767
846 845 846 847 850 852 850 849 848 848 848 846 842 839 835 828 829 825 824 824 818 817 814 811 815 818 816 811 808 805 804 801 796 798 805 804 809 810 796 783 780 762 746 748 749 753 751
842 841 841 842 844 846 847 847 846 845 846 849 847 846 842 829 827 826 821 820 819 819 821 813 814 817 808 804 803 800 799 794 793 793 793 799 804 809 803 789 772 743 743 745 748 748 744
841 839 838 839 840 841 840 839 841 841 841 843 844 846 845 841 830 828 823 822 821 819 817 813 808 805 803 804 808 805 796 785 778 786 793 793 798 803 810 801 763 738 741 744 743 738 734
835 835 835 834 836 836 837 837 836 837 840 839 840 841 841 837 829 827 826 825 826 822 817 808 802 802 803 808 809 810 804 784 777 783 789 792 793 798 805 793 762 736 737 738 739 746 732
830 829 830 830 831 830 830 834 834 835 835 837 836 836 836 830 822 826 826 824 820 818 815 807 806 801 800 809 806 804 804 787 783 785 796 798 802 795 799 797 764 738 738 739 742 736 731
825 824 825 826 827 827 829 829 831 833 834 832 831 832 833 826 818 820 820 821 820 820 818 810 807 803 807 808 806 801 806 785 775 770 781 783 794 800 797 794 770 732 740 740 732 733 731
824 822 823 822 823 824 827 826 827 827 828 830 828 826 827 823 811 810 809 812 813 812 815 809 804 799 800 801 802 801 789 788 775 766 767 765 755 766 762 747 731 731 727 730 733 731 730